Tracking 17784 objects as of 23-July-2016
HD Live streaming from Space Station
objects crossing your sky now

COSMOS 2251 DEB

Track COSMOS 2251 DEB now!
10-day predictions


NORAD ID: 35448
Int'l Code: 1993-036AKS
Perigee: 755.6 km
Apogee: 776.2 km
Inclination: 73.9 °
Period: 100.0 minutes
Semi major axis: 7136 km
RCS: 0.0138 m2 (small)
Launch date: June 16, 1993
Source: Commonwealth of Independent States (former USSR) (CIS)
Launch site: PLESETSK MISSILE AND SPACE COMPLEX (PKMTR)

Note: This is SATELLITE DEBRIS
Your satellite tracking list
Your tracking list is empty





NASA's NSSDC Master Catalog

Two Line Element Set (TLE):
1 35448U 93036AKS 16204.19627221  .00000374  00000-0  12749-3 0  9998
2 35448  73.9091  31.8393 0014495 202.0575 157.9957 14.39919471379028
Source of the keplerian elements: AFSPC

N2YO: 962